Wind_Speed
10 10 11 11 10 10 9 8 9 9 9 9 9 10 10 10 10 10 10 10 10 11 11 12 12 12 12 11 11 11 11 11 10 11 11 10 10 10 10 9 9 8 7
10 9 9 9 9 9 8 8 8 8 8 8 9 10 11 11 11 11 11 11 11 12 12 13 13 13 13 13 13 13 13 13 13 13 12 12 12 12 12 12 11 11 10
9 9 7 6 7 7 8 8 8 8 8 8 8 9 10 10 10 11 12 12 12 12 12 13 14 15 15 15 15 15 15 14 15 16 15 15 14 14 15 14 14 13 12
7 7 6 5 5 6 5 6 6 7 7 7 8 8 9 9 10 10 11 12 12 13 13 13 14 15 17 17 16 17 17 17 17 17 18 17 17 16 16 17 17 16 15
6 5 4 3 3 4 3 3 4 4 5 5 6 7 7 8 8 8 9 10 11 12 13 14 15 15 16 18 19 19 19 18 19 19 20 20 19 19 18 18 19 19 18
5 4 3 2 2 2 2 2 2 3 4 5 6 6 7 7 8 8 8 8 9 10 12 13 14 15 16 18 19 19 20 20 20 20 21 21 21 21 21 20 20 21 21
5 4 2 1 1 1 1 1 2 3 4 4 5 6 6 7 7 8 8 8 9 9 10 12 13 15 15 17 18 19 19 21 21 22 22 23 23 23 23 23 22 22 23
5 4 3 2 1 0 1 1 1 2 3 4 4 5 6 6 6 7 8 8 9 10 10 11 12 14 15 16 17 17 18 20 21 22 22 23 24 24 25 24 24 24 25
5 5 3 2 1 1 1 1 1 2 3 3 4 5 5 6 6 7 7 8 9 10 10 12 12 13 15 16 17 18 18 19 20 22 22 23 25 26 26 26 27 27 27
6 5 3 2 1 1 1 1 2 3 3 4 4 5 5 6 6 7 8 8 8 9 10 11 12 13 14 15 17 18 19 20 20 21 22 23 24 26 27 27 28 28 29
6 5 3 2 1 1 1 2 2 3 4 4 4 5 5 6 6 7 8 9 10 10 11 12 13 13 14 16 17 18 19 21 21 22 23 23 24 25 27 27 29 30 31
6 5 4 2 1 1 1 2 3 4 4 5 5 5 6 6 7 8 9 10 10 11 12 13 13 14 15 16 17 19 20 22 22 23 24 24 25 25 27 28 29 30 32
6 5 4 2 1 0 1 2 3 4 5 6 6 7 7 8 8 9 9 10 11 12 12 13 14 14 15 17 18 19 21 22 23 24 25 25 26 27 28 29 30 31 32
6 5 4 2 1 1 2 3 4 5 6 6 7 8 8 9 9 10 11 11 12 12 13 14 14 15 16 17 18 19 20 22 23 24 26 27 28 28 29 30 31 31 32
6 5 4 2 1 2 2 4 4 5 6 7 8 9 9 10 11 11 12 12 13 13 14 14 15 16 16 17 18 20 21 22 23 24 26 27 28 29 30 31 32 33 33
7 6 4 3 2 3 4 5 6 7 8 9 9 10 11 12 12 13 13 14 14 15 15 16 16 17 18 18 19 20 21 22 23 24 25 27 28 29 31 32 32 33 34
7 6 5 4 4 5 6 7 7 8 9 10 11 12 12 13 14 15 15 16 16 17 17 18 18 19 19 20 20 21 21 22 23 24 25 27 28 29 31 32 33 34 35
7 6 6 6 6 7 8 9 9 10 11 12 12 13 14 15 15 16 17 17 18 19 19 20 20 20 21 22 22 22 22 23 24 25 26 27 28 30 31 32 33 35 36
8 7 7 7 8 9 10 11 12 13 13 14 14 14 15 16 17 17 18 19 19 20 21 21 22 23 23 23 23 24 24 25 25 26 26 27 29 30 31 32 33 34 36
9 9 9 10 10 11 12 13 14 14 15 15 16 16 17 18 18 19 20 21 21 21 22 23 23 24 25 25 25 26 26 27 27 28 28 29 29 30 32 33 33 35 36
11 12 12 12 13 14 15 15 16 16 17 18 18 18 19 20 20 20 21 22 23 23 24 24 25 26 27 27 27 27 28 29 30 30 30 30 31 31 32 33 35 36 36
14 14 15 15 16 16 17 17 18 19 19 19 20 20 21 21 21 22 23 23 24 25 26 26 27 27 28 29 29 29 30 30 31 32 32 32 32 33 34 34 35 36 37
17 17 17 18 18 19 19 20 20 20 21 21 22 22 22 22 23 24 25 26 26 27 28 28 29 29 30 31 31 31 31 32 32 33 33 33 34 34 34 35 37 37 38
19 19 20 20 21 21 21 22 22 22 23 23 23 24 24 24 25 26 27 27 28 29 30 30 31 32 33 33 33 34 34 34 34 35 36 35 35 36 35 36 36 37 39
21 21 22 22 23 23 24 24 25 24 25 25 25 26 26 27 27 28 29 29 30 31 32 33 33 34 35 36 36 36 37 36 36 37 38 37 37 37 37 38 39 39 39
23 23 24 24 24 25 26 26 26 26 26 26 27 28 28 29 29 30 31 32 33 33 34 35 36 37 38 38 39 39 39 39 39 39 40 40 39 39 38 39 40 40 40
Wind_Direction
278 284 279 279 280 281 277 274 274 277 280 277 272 272 271 268 268 263 257 256 255 250 248 247 244 240 238 238 237 236 238 237 234 230 229 228 228 226 226 226 227 225 226
273 279 278 276 278 277 272 275 275 277 279 277 271 270 270 271 266 263 264 262 258 254 252 249 246 242 241 241 241 241 242 242 238 235 234 234 234 231 230 231 231 232 232
267 274 275 273 276 276 272 274 276 280 281 280 278 276 274 273 267 262 263 264 260 255 253 250 249 246 245 245 246 245 244 244 241 239 238 238 239 237 235 235 234 235 236
262 268 268 272 279 282 278 278 280 281 282 282 283 282 280 276 272 269 267 266 263 257 254 254 255 252 249 248 248 248 247 248 247 244 241 241 241 241 240 238 236 236 237
249 257 256 269 285 292 291 288 289 293 294 287 287 286 285 284 282 277 275 272 266 261 259 257 259 260 254 251 251 251 249 249 250 248 245 244 244 243 243 241 238 237 238
232 235 242 262 273 282 294 292 301 308 311 306 298 294 292 288 289 285 283 278 270 265 262 261 260 262 259 255 254 253 252 251 251 252 250 247 247 245 243 243 241 238 238
206 209 212 205 221 269 307 307 320 322 318 313 307 301 296 293 292 289 287 285 279 274 271 268 264 261 262 259 258 255 253 252 253 253 253 249 248 248 245 245 244 241 239
189 186 172 162 159 16 342 322 327 334 333 326 319 312 305 302 299 294 292 289 285 280 278 276 272 267 262 261 261 258 257 255 254 254 254 251 248 249 248 247 246 243 241
173 165 155 138 116 60 26 356 352 344 339 335 328 321 314 309 305 302 297 294 291 289 286 283 280 276 270 266 263 259 259 260 258 256 254 252 250 250 250 249 247 244 243
169 161 153 139 124 80 45 18 7 356 350 344 341 335 328 320 314 308 305 302 298 292 289 286 285 280 275 271 269 265 261 261 261 260 257 256 253 250 250 250 249 246 244
165 165 164 162 145 100 56 25 8 359 357 353 347 341 335 328 321 315 310 307 303 299 295 290 285 282 279 275 271 268 266 264 262 261 259 257 255 253 251 250 249 247 246
173 170 164 158 142 96 43 20 3 358 356 352 346 342 337 331 324 318 312 310 309 306 302 297 292 287 282 278 275 271 269 267 265 263 260 257 257 256 252 250 249 248 248
176 169 166 167 159 104 11 359 351 348 345 343 341 338 335 332 328 324 318 314 310 308 305 301 297 291 286 281 277 275 272 270 268 265 263 260 258 258 256 253 250 248 248
178 179 182 186 195 316 335 338 337 336 336 336 336 335 333 331 329 327 323 319 316 313 310 306 302 298 294 289 284 279 276 273 271 268 265 263 260 259 257 256 253 250 248
187 188 193 200 244 302 320 330 333 332 330 329 329 328 328 328 326 324 322 320 317 315 312 309 306 303 299 295 291 287 283 279 275 272 269 266 262 260 258 257 256 254 251
195 199 210 229 265 291 304 315 318 320 322 322 322 323 322 322 321 320 318 316 314 313 311 309 307 304 301 298 295 292 288 284 280 277 273 270 266 263 260 259 257 256 254
207 215 230 250 273 288 299 307 311 313 315 316 316 317 317 317 316 316 315 314 312 311 310 308 307 305 302 299 297 294 291 288 284 280 276 273 270 267 264 261 258 257 255
215 230 248 265 278 288 297 303 306 307 308 310 311 311 312 313 312 312 312 312 310 309 308 307 306 305 304 302 299 297 294 291 288 284 280 276 272 269 267 264 261 258 256
230 244 260 272 282 290 297 301 302 303 303 305 306 306 308 309 309 309 309 309 309 308 307 306 305 303 302 301 300 298 295 292 289 286 283 280 276 272 269 266 264 261 258
243 256 267 276 283 290 295 298 300 300 300 301 302 303 304 305 305 305 306 307 307 306 306 305 304 303 302 300 299 297 296 294 292 289 286 283 280 275 271 268 266 263 261
254 262 270 276 282 287 292 295 296 296 296 297 298 300 301 302 302 302 304 305 305 305 305 304 304 303 302 301 299 297 296 295 294 291 288 286 283 279 275 272 269 266 264
260 266 271 276 281 286 290 293 294 294 295 295 296 297 299 299 299 300 301 303 304 303 303 303 303 302 301 300 298 297 296 295 294 292 290 287 285 281 277 274 271 267 265
263 268 273 277 281 285 289 292 293 293 293 293 293 294 296 297 297 298 299 300 302 302 302 302 302 301 300 299 297 296 295 295 294 292 289 288 285 283 280 276 272 269 266
266 270 274 278 281 284 287 290 291 290 290 290 291 293 295 296 297 297 298 299 300 300 301 302 302 301 300 298 296 296 295 294 294 292 290 288 286 283 280 277 275 272 269
267 272 275 279 281 284 286 288 289 289 290 290 291 292 293 295 296 297 297 298 298 298 299 300 301 301 300 298 296 295 294 293 293 292 291 289 286 283 280 278 276 273 270
269 273 276 279 281 283 287 288 288 289 289 290 291 291 292 294 294 295 296 297 297 297 298 298 299 299 299 297 295 294 293 292 292 291 291 290 288 284 281 279 278 274 271
Height
5885 5885 5884 5884 5883 5882 5882 5882 5881 5881 5881 5880 5880 5880 5880 5881 5881 5881 5882 5883 5883 5884 5885 5886 5887 5888 5889 5890 5891 5892 5893 5894 5895 5896 5897 5898 5899 5900 5901 5902 5902 5903 5904
5883 5883 5882 5882 5881 5880 5880 5880 5880 5879 5879 5879 5878 5878 5878 5879 5879 5879 5880 5880 5881 5882 5882 5883 5884 5885 5886 5887 5888 5889 5890 5891 5892 5893 5894 5895 5897 5898 5899 5900 5901 5902 5903
5880 5880 5880 5880 5879 5879 5879 5878 5878 5878 5878 5877 5877 5877 5877 5877 5877 5877 5877 5878 5878 5879 5879 5880 5881 5882 5883 5884 5885 5886 5887 5888 5889 5891 5892 5893 5894 5895 5896 5898 5899 5900 5901
5878 5878 5878 5878 5878 5877 5877 5877 5877 5876 5876 5876 5875 5875 5875 5875 5875 5875 5875 5875 5876 5876 5877 5877 5878 5879 5880 5881 5882 5883 5884 5885 5886 5887 5889 5890 5891 5892 5893 5895 5896 5897 5899
5876 5876 5876 5876 5876 5876 5876 5876 5875 5875 5875 5874 5874 5873 5873 5873 5873 5873 5873 5873 5873 5873 5874 5874 5875 5876 5876 5877 5878 5879 5880 5881 5882 5883 5885 5886 5887 5888 5890 5891 5892 5894 5896
5874 5875 5875 5875 5875 5875 5875 5875 5874 5874 5874 5873 5873 5872 5872 5871 5871 5871 5871 5871 5871 5871 5871 5871 5872 5872 5873 5873 5874 5875 5876 5877 5878 5879 5880 5881 5883 5884 5886 5887 5889 5890 5892
5873 5874 5874 5875 5875 5875 5874 5874 5874 5873 5873 5872 5872 5871 5870 5870 5870 5869 5869 5869 5869 5868 5868 5868 5868 5869 5869 5869 5870 5871 5871 5872 5873 5874 5875 5877 5878 5879 5881 5883 5884 5886 5888
5872 5873 5873 5874 5874 5874 5874 5873 5873 5872 5872 5871 5870 5870 5869 5869 5868 5868 5867 5867 5866 5866 5866 5865 5865 5865 5865 5866 5866 5867 5867 5868 5868 5869 5870 5871 5873 5874 5876 5877 5879 5881 5883
5871 5872 5872 5873 5873 5873 5873 5873 5872 5872 5871 5870 5869 5869 5868 5867 5867 5866 5865 5865 5864 5864 5863 5862 5862 5862 5862 5862 5862 5862 5863 5863 5864 5864 5865 5865 5867 5868 5870 5871 5873 5875 5877
5870 5871 5872 5872 5872 5872 5872 5872 5871 5870 5870 5869 5868 5867 5867 5866 5865 5864 5863 5863 5862 5861 5860 5860 5859 5859 5858 5858 5858 5858 5858 5858 5859 5859 5859 5860 5861 5862 5863 5865 5867 5869 5871
5870 5870 5871 5871 5871 5871 5871 5871 5870 5869 5869 5868 5867 5866 5865 5864 5863 5862 5861 5860 5859 5858 5857 5856 5856 5855 5855 5854 5854 5853 5853 5853 5853 5854 5854 5854 5855 5856 5857 5858 5860 5862 5864
5868 5869 5870 5870 5870 5870 5870 5870 5869 5868 5867 5866 5866 5865 5864 5863 5861 5860 5859 5858 5856 5855 5854 5853 5852 5851 5851 5850 5849 5848 5848 5848 5848 5848 5848 5848 5849 5850 5850 5852 5853 5854 5856
5867 5868 5869 5869 5869 5869 5869 5868 5868 5867 5866 5865 5864 5863 5862 5860 5859 5858 5857 5855 5854 5853 5851 5850 5849 5847 5846 5845 5844 5843 5843 5842 5842 5842 5842 5842 5842 5843 5843 5844 5845 5847 5849
5866 5867 5867 5868 5868 5868 5868 5867 5866 5865 5864 5863 5862 5861 5860 5858 5857 5855 5854 5853 5851 5849 5848 5846 5845 5843 5842 5840 5839 5838 5837 5836 5835 5835 5835 5835 5835 5836 5836 5837 5838 5839 5841
5864 5865 5866 5866 5866 5866 5866 5865 5864 5864 5863 5861 5860 5859 5857 5856 5854 5853 5851 5849 5848 5846 5844 5843 5841 5839 5837 5835 5834 5832 5831 5830 5829 5828 5828 5827 5827 5828 5828 5829 5830 5831 5832
5863 5864 5864 5864 5864 5864 5864 5863 5862 5861 5860 5859 5857 5856 5854 5853 5851 5849 5848 5846 5844 5842 5840 5839 5837 5835 5833 5831 5829 5827 5825 5823 5822 5821 5820 5820 5820 5820 5820 5820 5821 5822 5823
5861 5862 5862 5862 5862 5862 5861 5861 5860 5859 5857 5856 5855 5853 5851 5850 5848 5846 5844 5842 5840 5838 5836 5834 5832 5830 5828 5825 5823 5821 5819 5817 5815 5814 5813 5812 5812 5811 5811 5811 5812 5813 5814
5859 5860 5860 5860 5860 5859 5858 5858 5857 5855 5854 5853 5851 5849 5848 5846 5844 5842 5840 5838 5836 5833 5831 5829 5826 5824 5822 5820 5817 5815 5813 5811 5809 5807 5806 5804 5803 5803 5802 5802 5803 5803 5804
5857 5857 5857 5857 5856 5856 5855 5854 5853 5852 5850 5849 5847 5845 5843 5841 5839 5837 5835 5833 5831 5828 5826 5823 5821 5818 5816 5813 5811 5808 5806 5804 5801 5799 5798 5796 5795 5794 5793 5793 5793 5793 5794
5854 5854 5854 5853 5853 5852 5851 5850 5849 5847 5846 5844 5842 5840 5838 5836 5834 5832 5830 5827 5825 5823 5820 5818 5815 5812 5809 5807 5804 5801 5799 5796 5794 5791 5789 5788 5786 5785 5784 5783 5783 5783 5783
5850 5850 5850 5849 5849 5848 5847 5846 5844 5842 5841 5839 5837 5835 5833 5831 5829 5826 5824 5822 5819 5816 5814 5811 5808 5805 5802 5799 5797 5794 5791 5788 5785 5783 5781 5778 5777 5775 5774 5773 5772 5772 5772
5846 5846 5845 5845 5844 5843 5842 5840 5839 5837 5835 5833 5831 5829 5827 5825 5823 5820 5818 5815 5813 5810 5807 5804 5801 5798 5795 5791 5788 5785 5783 5780 5777 5774 5771 5769 5767 5765 5763 5762 5761 5761 5760
5841 5841 5840 5840 5839 5838 5836 5835 5833 5831 5829 5827 5825 5823 5821 5819 5816 5814 5811 5809 5806 5802 5800 5797 5793 5790 5787 5783 5780 5777 5773 5770 5768 5764 5761 5759 5756 5754 5752 5751 5750 5749 5748
5836 5835 5835 5834 5833 5832 5830 5829 5827 5825 5823 5821 5819 5817 5814 5812 5809 5807 5804 5801 5798 5795 5791 5788 5785 5781 5778 5774 5770 5767 5764 5761 5758 5754 5750 5749 5746 5743 5741 5739 5738 5737 5736
5830 5829 5829 5828 5826 5825 5824 5822 5820 5818 5816 5814 5812 5809 5807 5805 5802 5799 5796 5794 5790 5787 5783 5779 5776 5772 5768 5764 5760 5757 5753 5750 5747 5743 5739 5737 5734 5732 5730 5727 5725 5724 5723
5823 5823 5822 5821 5820 5818 5816 5815 5813 5811 5809 5806 5804 5802 5799 5796 5794 5790 5788 5785 5781 5778 5774 5770 5767 5762 5758 5754 5749 5746 5742 5738 5735 5732 5727 5724 5722 5719 5718 5715 5712 5710 5710